Flag for Costa Rica Weather past 2 weeks in San Jose, Costa Rica

Now
64 °F

Clear.


Feels Like: 64 °F
Forecast: 64 / 78 °F
Wind: 8 mph from East

Location: Juan Santamaria

Current Time: Jan 25, 2015 at 4:15:25 AM

Latest Report: Jan 25, 2015 at 4:00 AM


Visibility: 10 mi

Pressure: 29.96 "Hg

Humidity: 64%

Dew point: 52 °F

Location of San JoseLocation

Historic Weather in San Jose — Graph

°F

San Jose temperature yesterday

Maximum temperature yesterday: 84 °F (at 1:00 PM)
Minimum temperature yesterday: 64 °F (at 3:00 AM)
Average temperature yesterday: 72 °F

Past Weeks' High & Low Weather Summary

 TemperatureHumidityPressure
High86 °F (Jan 15, 2:00 PM)88% (Jan 15, 7:00 PM)30.11 "Hg (Jan 15, 7:00 PM)
Low64 °F (Jan 23, 5:00 AM)28% (Jan 21, 12:00 PM)29.92 "Hg (Jan 11, 4:00 PM)
Average73 °F61%30.02 "Hg
* Reported Jan 10 3:00 AM — Jan 25 3:00 AM, San Jose, Weather by CustomWeather, © 2014

Note: Actual official high and low records may vary slightly from our data, if they occured in-between our weather recording intervals... More about our weather records

Advertising

San Jose weather history for previous 24 hours

 ConditionsComfort  
Time TempWeatherWind HumidityBarometerVisibility
3:00 AM
Jan 25
66 °FClear.10 mph60%29.96 "Hg10 mi
2:00 AM66 °FClear.9 mph64%29.97 "Hg10 mi
1:00 AM68 °FClear.15 mph69%29.98 "Hg10 mi
12:00 AM68 °FPassing clouds.13 mph69%30.00 "HgN/A
11:00 PM
Jan 24
66 °FPassing clouds.10 mph73%30.02 "HgN/A
10:00 PM68 °FPassing clouds.9 mph69%30.04 "HgN/A
9:00 PM68 °FPassing clouds.8 mph69%30.06 "HgN/A
8:00 PM68 °FPassing clouds.12 mph69%30.04 "HgN/A
7:00 PM70 °FPassing clouds.12 mph69%30.01 "HgN/A
6:00 PM72 °FPassing clouds.7 mph69%30.00 "HgN/A
5:00 PM77 °FScattered clouds.10 mph51%29.97 "HgN/A
4:00 PM81 °FScattered clouds.15 mph42%29.96 "HgN/A
3:00 PM81 °FPassing clouds.14 mph42%29.96 "HgN/A
2:00 PM82 °FScattered clouds.12 mph40%29.98 "HgN/A
1:00 PM84 °FScattered clouds.13 mph37%30.00 "HgN/A
12:00 PM81 °FScattered clouds.14 mph45%30.03 "HgN/A
11:00 AM79 °FScattered clouds.17 mph48%30.05 "HgN/A
10:00 AM77 °FPassing clouds.14 mph51%30.06 "HgN/A
9:00 AM75 °FPassing clouds.14 mph57%30.05 "HgN/A
8:00 AM73 °FScattered clouds.12 mph61%30.05 "HgN/A
7:00 AM68 °FScattered clouds.12 mph69%30.04 "HgN/A
6:00 AM66 °FSunny.8 mph73%30.03 "Hg10 mi
5:00 AM66 °FPassing clouds.6 mph73%30.02 "HgN/A
4:00 AM66 °FPassing clouds.7 mph73%30.00 "HgN/A
Weather by CustomWeather, © 2014

See weather overviewHow to use our weather pages